Regional Weather Roundup
Issued by NWS Huntsville, AL

Home | Current Version | Previous Version | Text Only | Print | Product List | Glossary On
Versions: 1 2 3 4 5 6 7 8 9 10 11 12 13 14 15 16 17 18 19 20 21 22 23 24 25 26 27 28 29 30 31 32 33 34 35 36 37 38 39 40 41 42 43 44 45 46 47 48 49 50
110
ASUS44 KHUN 170910
RWRHUN

WEATHER ROUNDUP FOR THE TENNESSEE VALLEY
NATIONAL WEATHER SERVICE HUNTSVILLE AL
400 AM CDT TUE OCT 17 2017

ALZ001>004-171000-
NORTHWEST ALABAMA

CITY           SKY/WX    TMP DP  RH WIND       PRES   REMARKS
COURTLAND HCN    N/A     45 N/A N/A CALM        N/A
RUSSELLVILLE     N/A     43 N/A N/A MISG        N/A
SHOALS AIRPORT CLEAR     50  42  74 NE6       30.29S
SHOALS TVA RES   N/A     50 N/A N/A MISG        N/A
$$

ALZ005>007-016-171000-
NORTH CENTRAL ALABAMA

CITY           SKY/WX    TMP DP  RH WIND       PRES   REMARKS
CULLMAN AG STN   N/A     46 N/A N/A CALM        N/A
DECATUR AP     CLEAR     44  43  96 N3        30.28S
HUNTSVILLE AP  CLEAR     46  44  93 CALM      30.27R
MERIDIANVILLE  CLEAR     45  41  87 N3        30.28S
REDSTONE ARSN  CLEAR     46  44  91 NE3       30.26S
VINEMONT AP    FAIR      40  40  98 CALM      30.28R
$$

ALZ008>010-171000-
NORTHEAST ALABAMA

CITY           SKY/WX    TMP DP  RH WIND       PRES   REMARKS
ALBERTVILLE    CLEAR     45  45 100 NE3       30.25R
FORT PAYNE     CLEAR     43  39  87 CALM      30.26S
SCOTTSBORO AP  CLEAR     46  45  93 CALM      30.28R
SCOTTSBORO HCN   N/A     45 N/A N/A MISG        N/A
VALLEY HEAD      N/A     48 N/A N/A MISG        N/A
$$

TNZ076-096-097-171000-
SOUTHEASTERN MIDDLE TENNESSEE

CITY           SKY/WX    TMP DP  RH WIND       PRES   REMARKS
TULLAHOMA        N/A     37  36  93 CALM      30.30R
WINCHESTER     CLEAR     39  37  93 CALM        N/A
$$

...SURROUNDING SITES...

CITY           SKY/WX    TMP DP  RH WIND       PRES   REMARKS
ATLANTA        PTCLDY    52  42  69 E10       30.25R
ANNISTON       CLEAR     49  44  83 CALM      30.24S
BIRMINGHAM     CLEAR     53  43  68 NE6       30.25S
CHATTANOOGA    CLEAR     50  40  68 NE7       30.29R
CORINTH        FAIR      41  41 100 CALM      30.29S
DALTON         CLEAR     41  41 100 CALM      30.29S
GADSDEN        CLEAR     46  45  96 N3        30.26S
GOLDEN TRNGL   CLEAR     45  43  93 N5        30.26S
HALEYVILLE     FAIR      46  44  93 NE5       30.28S
JACKSON TN     CLEAR     40  39  97 CALM      30.31S
MEMPHIS        CLEAR     49  41  74 N5        30.29F
NASHVILLE      CLEAR     45  42  89 CALM      30.32S
OXFORD MS      FAIR      45  41  87 CALM      30.28F
ROME           CLEAR     46  45  96 N3        30.26S
SAVANNAH       CLEAR     39  39 100 CALM      30.30R
SELMER         CLEAR     41  39  93 CALM      30.29S
TUPELO         CLEAR     43  40  89 N7        30.27F
TUSCALOOSA     CLEAR     50  47  89 N5        30.23R
$$

...GULF COAST WEATHER...

CITY           SKY/WX    TMP DP  RH WIND       PRES   REMARKS
GULFPORT       CLEAR     56  48  74 N7        30.14S
PASCAGOULA     CLEAR     53  48  83 NE5       30.14R
MOBILE         CLEAR     54  48  80 N7        30.14S
GULF SHORES    SUNNY     54  50  87 NE6       30.11F
PENSACOLA      CLEAR     57  50  77 N9        30.10F
DESTIN         PTCLDY    63  50  62 NE10G21   30.10S
PANAMA CITY    CLOUDY    62  52  69 NE9G18    30.07S
APPALACHICOLA  CLOUDY    65  56  72 NE12      30.04F
$$





USA.gov is the U.S. government's official web portal to all federal, state and local government web resources and services.